When you browse on this site, cookies collect data to enhance your experience and personalize the content and advertising you see.
Visit our Privacy Policy to learn more. By continuing to use the site, you agree to this use of cookies and data.
  • In Belgium
  • List of Countries
  • For 7 days
  • Water Temperature
  • Satellite Maps
  • Weather Map
  • Weather Widgets
  • user-avatar
    Login

    Hourly Weather Kurşunlu

    Today, 11 December, Tuesday

    Time Temperature Precipitation Wind Pressure Humidity
    00:00 +3°C° 0.8 mm 4 mps 651 mmHg 89%
    01:00 +3°C° 0.8 mm 4 mps 650 mmHg 91%
    02:00 +3°C° 0.8 mm 3 mps 650 mmHg 92%
    03:00 +3°C° 0.5 mm 4 mps 650 mmHg 91%
    04:00 +3°C° 0.5 mm 4 mps 650 mmHg 91%
    05:00 +3°C° 0.5 mm 4 mps 650 mmHg 90%
    06:00 +1°C° 0.2 mm 4 mps 651 mmHg 88%
    07:00 +1°C° 0.2 mm 5 mps 652 mmHg 87%
    08:00 +1°C° 0.2 mm 5 mps 652 mmHg 86%
    09:00 +1°C° 0.5 mm 5 mps 653 mmHg 84%
    10:00 +1°C° 0.5 mm 6 mps 654 mmHg 82%
    11:00 0°C° 0.5 mm 7 mps 654 mmHg 80%
    12:00 +1°C° 0.4 mm 6 mps 655 mmHg 79%
    13:00 +1°C° 0.4 mm 6 mps 656 mmHg 78%
    14:00 -1°C° 0.4 mm 6 mps 656 mmHg 77%
    15:00 0°C° 0.2 mm 5 mps 657 mmHg 80%
    16:00 -1°C° 0.2 mm 4 mps 657 mmHg 82%
    17:00 0°C° 0.2 mm 3 mps 658 mmHg 84%
    18:00 -1°C° 0.1 mm 2 mps 658 mmHg 86%
    19:00 -2°C° 0.1 mm 2 mps 658 mmHg 87%
    20:00 0°C° 0.1 mm 1 mps 658 mmHg 89%
    21:00 0°C° 0 mm 1 mps 658 mmHg 89%
    22:00 -1°C° 0 mm 1 mps 658 mmHg 89%
    23:00 -2°C° 0 mm 0 mps 658 mmHg 89%

    Tomorrow, 12 December, Wednesday

    Time Temperature Precipitation Wind Pressure Humidity
    00:00 -1°C° 0 mm 1 mps 658 mmHg 88%
    01:00 -1°C° 0 mm 1 mps 658 mmHg 87%
    02:00 -1°C° 0 mm 1 mps 658 mmHg 86%
    03:00 -1°C° 0 mm 1 mps 657 mmHg 86%
    04:00 -1°C° 0 mm 1 mps 657 mmHg 87%
    05:00 -1°C° 0 mm 1 mps 657 mmHg 87%
    06:00 -1°C° 0 mm 1 mps 657 mmHg 86%
    07:00 -1°C° 0 mm 1 mps 657 mmHg 84%
    08:00 0°C° 0 mm 1 mps 658 mmHg 83%
    09:00 0°C° 0 mm 1 mps 658 mmHg 79%
    10:00 +1°C° 0 mm 1 mps 658 mmHg 75%
    11:00 +2°C° 0 mm 1 mps 658 mmHg 70%
    12:00 +2°C° 0 mm 1 mps 658 mmHg 70%
    13:00 +2°C° 0 mm 1 mps 658 mmHg 70%
    14:00 +3°C° 0 mm 1 mps 658 mmHg 69%
    15:00 +2°C° 0.2 mm 1 mps 658 mmHg 74%
    16:00 +1°C° 0.2 mm 1 mps 659 mmHg 79%
    17:00 +1°C° 0.2 mm 1 mps 659 mmHg 84%
    18:00 +1°C° 0.3 mm 1 mps 659 mmHg 86%
    19:00 0°C° 0.3 mm 1 mps 660 mmHg 88%
    20:00 0°C° 0.3 mm 1 mps 660 mmHg 90%
    21:00 0°C° 0.5 mm 1 mps 660 mmHg 90%
    22:00 -2°C° 0.5 mm 2 mps 661 mmHg 90%
    23:00 -3°C° 0.5 mm 2 mps 661 mmHg 90%

    Day after tomorrow, 13 December, Thursday

    Time Temperature Precipitation Wind Pressure Humidity
    00:00 -3°C° 0.2 mm 2 mps 662 mmHg 90%
    01:00 -4°C° 0.2 mm 2 mps 662 mmHg 90%
    02:00 -4°C° 0.2 mm 2 mps 662 mmHg 90%
    03:00 -5°C° 0 mm 2 mps 662 mmHg 90%
    04:00 -3°C° 0 mm 1 mps 662 mmHg 90%
    05:00 -4°C° 0 mm 1 mps 662 mmHg 89%
    06:00 -4°C° 0 mm 1 mps 663 mmHg 88%
    07:00 -4°C° 0 mm 1 mps 663 mmHg 86%
    08:00 -4°C° 0 mm 1 mps 663 mmHg 84%
    09:00 -2°C° 0 mm 1 mps 664 mmHg 77%
    10:00 -3°C° 0 mm 2 mps 664 mmHg 71%
    11:00 -2°C° 0 mm 2 mps 665 mmHg 64%
    12:00 -1°C° 0 mm 2 mps 665 mmHg 62%
    13:00 -1°C° 0 mm 2 mps 664 mmHg 60%
    14:00 -1°C° 0 mm 2 mps 664 mmHg 58%
    15:00 -2°C° 0 mm 2 mps 664 mmHg 62%
    16:00 -3°C° 0 mm 2 mps 664 mmHg 67%
    17:00 -2°C° 0 mm 1 mps 663 mmHg 71%
    18:00 -5°C° 0 mm 2 mps 664 mmHg 71%
    19:00 -5°C° 0 mm 2 mps 664 mmHg 72%
    20:00 -5°C° 0 mm 2 mps 664 mmHg 72%
    21:00 -4°C° 0 mm 2 mps 664 mmHg 72%
    22:00 -4°C° 0 mm 2 mps 664 mmHg 72%
    23:00 -4°C° 0 mm 2 mps 663 mmHg 73%

    14 December, Friday

    Time Temperature Precipitation Wind Pressure Humidity
    00:00 -4°C° 0.1 mm 2 mps 663 mmHg 74%
    01:00 -4°C° 0.1 mm 2 mps 663 mmHg 76%
    02:00 -4°C° 0.1 mm 2 mps 663 mmHg 78%
    03:00 -4°C° 0.7 mm 2 mps 662 mmHg 82%
    04:00 -4°C° 0.7 mm 2 mps 662 mmHg 87%
    05:00 -5°C° 0.7 mm 3 mps 661 mmHg 91%
    06:00 -4°C° 0.4 mm 3 mps 661 mmHg 92%
    07:00 -4°C° 0.4 mm 3 mps 661 mmHg 92%
    08:00 -4°C° 0.4 mm 3 mps 661 mmHg 92%
    09:00 -2°C° 1.3 mm 3 mps 661 mmHg 92%
    10:00 -2°C° 1.3 mm 3 mps 661 mmHg 92%
    11:00 -2°C° 1.3 mm 2 mps 661 mmHg 93%
    12:00 -1°C° 1.2 mm 2 mps 661 mmHg 93%
    13:00 -1°C° 1.2 mm 2 mps 661 mmHg 94%
    14:00 +1°C° 1.2 mm 2 mps 661 mmHg 94%
    15:00 +1°C° 0.5 mm 2 mps 662 mmHg 94%
    16:00 +2°C° 0.5 mm 1 mps 662 mmHg 94%
    17:00 +2°C° 0.5 mm 1 mps 663 mmHg 93%
    18:00 +2°C° 0.2 mm 1 mps 663 mmHg 93%
    19:00 +2°C° 0.2 mm 1 mps 663 mmHg 93%
    20:00 +2°C° 0.2 mm 1 mps 664 mmHg 93%
    21:00 +2°C° 0.1 mm 1 mps 664 mmHg 93%
    22:00 +2°C° 0.1 mm 1 mps 664 mmHg 94%
    23:00 +2°C° 0.1 mm 1 mps 665 mmHg 94%

    15 December, Saturday

    Time Temperature Precipitation Wind Pressure Humidity
    00:00 +2°C° 0.1 mm 1 mps 665 mmHg 94%
    01:00 +2°C° 0.1 mm 1 mps 665 mmHg 93%
    02:00 +1°C° 0.1 mm 0 mps 665 mmHg 93%
    03:00 +1°C° 0 mm 0 mps 665 mmHg 93%
    04:00 +2°C° 0 mm 1 mps 665 mmHg 93%
    05:00 +2°C° 0 mm 1 mps 665 mmHg 93%
    06:00 +2°C° 0 mm 1 mps 665 mmHg 93%
    07:00 +2°C° 0 mm 1 mps 666 mmHg 93%
    08:00 +2°C° 0 mm 1 mps 666 mmHg 93%
    09:00 +2°C° 0 mm 1 mps 666 mmHg 94%
    10:00 +3°C° 0 mm 1 mps 666 mmHg 95%
    11:00 +4°C° 0 mm 1 mps 666 mmHg 96%
    12:00 +4°C° 0 mm 1 mps 666 mmHg 96%
    13:00 +4°C° 0 mm 1 mps 666 mmHg 96%
    14:00 +4°C° 0 mm 1 mps 665 mmHg 97%
    15:00 +4°C° 0 mm 1 mps 665 mmHg 97%
    16:00 +3°C° 0 mm 1 mps 665 mmHg 97%
    17:00 +3°C° 0 mm 1 mps 665 mmHg 97%
    18:00 +3°C° 0 mm 1 mps 665 mmHg 96%
    19:00 +3°C° 0 mm 1 mps 665 mmHg 95%
    20:00 +3°C° 0 mm 1 mps 665 mmHg 94%
    21:00 +3°C° 0 mm 1 mps 665 mmHg 93%
    22:00 +3°C° 0 mm 1 mps 664 mmHg 93%
    23:00 +3°C° 0 mm 1 mps 664 mmHg 92%

    16 December, Sunday

    Time Temperature Precipitation Wind Pressure Humidity
    00:00 +3°C° 0.1 mm 1 mps 664 mmHg 92%
    01:00 +3°C° 0.1 mm 1 mps 664 mmHg 92%
    02:00 +3°C° 0.1 mm 1 mps 663 mmHg 92%
    03:00 +3°C° 0.1 mm 1 mps 663 mmHg 91%
    04:00 +3°C° 0.1 mm 1 mps 663 mmHg 91%
    05:00 +3°C° 0.1 mm 1 mps 662 mmHg 90%
    06:00 +3°C° 0.3 mm 1 mps 662 mmHg 90%
    07:00 +3°C° 0.3 mm 1 mps 662 mmHg 91%
    08:00 +3°C° 0.3 mm 1 mps 662 mmHg 91%
    09:00 +4°C° 0.4 mm 1 mps 662 mmHg 92%
    10:00 +4°C° 0.4 mm 1 mps 662 mmHg 94%
    11:00 +5°C° 0.4 mm 1 mps 662 mmHg 95%
    12:00 +5°C° 0.1 mm 1 mps 662 mmHg 95%
    13:00 +5°C° 0.1 mm 1 mps 661 mmHg 94%
    14:00 +5°C° 0.1 mm 1 mps 661 mmHg 94%
    15:00 +4°C° 0 mm 1 mps 661 mmHg 94%
    16:00 +4°C° 0 mm 1 mps 660 mmHg 94%
    17:00 +3°C° 0 mm 1 mps 660 mmHg 94%
    18:00 +3°C° 0 mm 1 mps 660 mmHg 92%
    19:00 +2°C° 0 mm 1 mps 660 mmHg 91%
    20:00 +2°C° 0 mm 1 mps 660 mmHg 90%
    21:00 +2°C° 0 mm 1 mps 660 mmHg 89%
    22:00 +2°C° 0 mm 1 mps 660 mmHg 88%
    23:00 +2°C° 0 mm 1 mps 660 mmHg 88%
    Show more